SUR4101 MROC-MPTO

Flight info

Callsign SUR4101
Flight time N/A
Altitude 39000
Route TEJAR4M LIO UA317 BUFEO DCT BITOR VUMAN2C
Aircraft B736/M-SDE2E3FGHIRWXY/LB1

Departure

Time 2026-05-05 23:45
Airport Juan Santamaría International Airport (MROC)

Arrival

Time N/A
Airport Tocumen International Airport (MPTO)
Time Latitude Longitude Altitude Speed Heading
2026-05-05 22:55 9.99676 -84.20557 3022 ft 0 kts 340°
2026-05-05 23:32 9.99675 -84.20557 3022 ft 1 kts 341°
2026-05-05 23:33 9.99662 -84.20549 3023 ft 2 kts 310°
2026-05-05 23:33 9.99654 -84.20536 3023 ft 2 kts 287°
2026-05-05 23:33 9.99653 -84.20521 3023 ft 2 kts 263°
2026-05-05 23:33 9.99654 -84.20512 3024 ft 0 kts 250°
2026-05-05 23:38 9.99654 -84.20514 3024 ft 1 kts 250°
2026-05-05 23:39 9.99644 -84.20539 3022 ft 2 kts 247°
2026-05-05 23:39 9.99621 -84.20573 3020 ft 8 kts 226°
2026-05-05 23:39 9.99578 -84.20642 3016 ft 14 kts 247°
2026-05-05 23:39 9.99534 -84.20749 3009 ft 19 kts 248°
2026-05-05 23:40 9.99475 -84.20888 3002 ft 23 kts 248°
2026-05-05 23:40 9.99415 -84.21062 2993 ft 28 kts 250°
2026-05-05 23:40 9.99366 -84.21198 2987 ft 13 kts 250°
2026-05-05 23:40 9.99327 -84.21306 2981 ft 19 kts 249°
2026-05-05 23:41 9.99274 -84.21452 2972 ft 24 kts 251°
2026-05-05 23:41 9.99208 -84.21631 2961 ft 30 kts 249°
2026-05-05 23:41 9.99126 -84.21846 2950 ft 34 kts 249°
2026-05-05 23:41 9.99045 -84.22076 2940 ft 32 kts 250°
2026-05-05 23:42 9.98946 -84.22181 2937 ft 9 kts 178°
2026-05-05 23:42 9.98922 -84.22171 2938 ft 10 kts 132°
2026-05-05 23:42 9.98945 -84.22073 2943 ft 5 kts 68°
2026-05-05 23:42 9.98946 -84.22072 2943 ft 0 kts 68°
2026-05-05 23:43 9.98946 -84.22071 2943 ft 1 kts 68°
2026-05-05 23:44 9.98984 -84.21976 2949 ft 44 kts 69°
2026-05-05 23:44 9.99212 -84.21346 2979 ft 140 kts 66°
2026-05-05 23:44 9.99643 -84.20261 3179 ft 184 kts 70°
2026-05-05 23:44 10.00144 -84.18941 3429 ft 218 kts 71°
2026-05-05 23:45 10.00629 -84.17429 4104 ft 227 kts 75°
2026-05-05 23:45 10.00949 -84.15919 5606 ft 219 kts 81°
2026-05-05 23:45 10.01080 -84.14386 6442 ft 242 kts 86°
2026-05-05 23:45 10.01172 -84.12611 7296 ft 260 kts 86°
2026-05-05 23:46 10.00940 -84.10786 8351 ft 273 kts 109°
2026-05-05 23:46 9.99845 -84.09208 9360 ft 287 kts 135°
2026-05-05 23:46 9.98260 -84.07967 10523 ft 292 kts 142°
2026-05-05 23:46 9.96588 -84.06786 11588 ft 299 kts 142°
2026-05-05 23:47 9.94893 -84.05524 12677 ft 305 kts 139°
2026-05-05 23:47 9.93220 -84.04207 13746 ft 310 kts 138°
2026-05-05 23:47 9.91537 -84.02840 14799 ft 316 kts 138°
2026-05-05 23:47 9.89803 -84.01435 15856 ft 321 kts 138°
2026-05-05 23:48 9.88060 -84.00043 16866 ft 327 kts 139°
2026-05-05 23:48 9.86246 -83.98601 17832 ft 333 kts 138°
2026-05-05 23:48 9.84541 -83.97005 18817 ft 334 kts 127°
2026-05-05 23:48 9.83330 -83.95051 19783 ft 333 kts 111°
2026-05-05 23:49 9.82653 -83.92823 20775 ft 332 kts 98°
2026-05-05 23:49 9.82489 -83.90496 21712 ft 334 kts 86°
2026-05-05 23:49 9.82764 -83.88180 22597 ft 338 kts 78°
2026-05-05 23:49 9.83231 -83.85824 23414 ft 344 kts 77°
2026-05-05 23:50 9.83732 -83.83425 24218 ft 351 kts 77°
2026-05-05 23:50 9.84201 -83.81021 25058 ft 355 kts 78°
2026-05-05 23:50 9.84650 -83.78515 25817 ft 362 kts 79°
2026-05-05 23:50 9.85073 -83.75980 26584 ft 367 kts 79°
2026-05-05 23:51 9.85482 -83.73432 27270 ft 374 kts 79°
2026-05-05 23:51 9.85891 -83.70824 27970 ft 379 kts 79°
2026-05-05 23:51 9.86302 -83.68169 28611 ft 385 kts 79°
2026-05-05 23:51 9.86717 -83.65472 29317 ft 390 kts 80°
2026-05-05 23:52 9.87138 -83.62740 29971 ft 395 kts 80°
2026-05-05 23:52 9.87561 -83.59975 30623 ft 399 kts 81°
2026-05-05 23:52 9.87983 -83.57220 31245 ft 403 kts 81°
2026-05-05 23:52 9.88418 -83.54386 31849 ft 408 kts 81°
2026-05-05 23:53 9.88857 -83.51533 32382 ft 414 kts 81°
2026-05-05 23:53 9.89305 -83.48618 32955 ft 418 kts 81°
2026-05-05 23:53 9.90195 -83.42814 33039 ft 413 kts 81°
2026-05-05 23:54 9.91073 -83.37077 33037 ft 414 kts 81°
2026-05-05 23:54 9.91955 -83.31298 33021 ft 414 kts 82°